| time (UTC) | temp F | wind direction | speed MPH | gust MPH | rain 1hr in | rain 24hr in | rain mn in | humidity % | barometer mb |
| 20260507014621 | 58 | 314 | 4.0 | 10.0 | 0.00 | 0.00 | 0.00 | 75 | 1020.7 |
| 20260507014120 | 58 | 226 | 4.0 | 10.0 | 0.00 | 0.00 | 0.00 | 75 | 1020.7 |
| 20260507013621 | 58 | 333 | 4.0 | 12.0 | 0.00 | 0.00 | 0.00 | 74 | 1020.7 |
| 20260507013121 | 58 | 238 | 4.0 | 12.0 | 0.00 | 0.00 | 0.00 | 74 | 1020.7 |
| 20260507012620 | 58 | 338 | 5.0 | 10.0 | 0.00 | 0.00 | 0.00 | 74 | 1020.7 |
| 20260507012125 | 59 | 261 | 5.0 | 14.0 | 0.00 | 0.00 | 0.00 | 74 | 1020.8 |
| 20260507012120 | 58 | 219 | 5.0 | 14.0 | 0.00 | 0.00 | 0.00 | 74 | 1020.8 |
| 20260507011121 | 59 | 278 | 5.0 | 11.0 | 0.00 | 0.00 | 0.00 | 74 | 1020.8 |
| 20260507010621 | 59 | 304 | 5.0 | 12.0 | 0.00 | 0.00 | 0.00 | 73 | 1020.8 |
| 20260507010121 | 59 | 284 | 5.0 | 12.0 | 0.00 | 0.00 | 0.00 | 72 | 1020.9 |
| 20260507005626 | 60 | 286 | 4.0 | 10.0 | 0.00 | 0.00 | 0.00 | 72 | 1020.7 |
| 20260507005622 | 60 | 265 | 5.0 | 11.0 | 0.00 | 0.00 | 0.00 | 73 | 1020.8 |
| 20260507004620 | 60 | 229 | 4.0 | 10.0 | 0.00 | 0.00 | 0.00 | 72 | 1020.7 |
| 20260507004120 | 60 | 287 | 4.0 | 14.0 | 0.00 | 0.00 | 0.00 | 74 | 1020.7 |
| 20260507003620 | 60 | 245 | 4.0 | 14.0 | 0.00 | 0.00 | 0.00 | 71 | 1020.7 |
| 20260507003126 | 61 | 243 | 5.0 | 13.0 | 0.00 | 0.00 | 0.00 | 71 | 1020.6 |
| 20260507003122 | 60 | 236 | 5.0 | 12.0 | 0.00 | 0.00 | 0.00 | 71 | 1020.7 |
| 20260507002122 | 61 | 257 | 5.0 | 13.0 | 0.00 | 0.00 | 0.00 | 71 | 1020.7 |
| 20260507001620 | 61 | 298 | 6.0 | 15.0 | 0.00 | 0.00 | 0.00 | 70 | 1020.7 |
| 20260507001120 | 61 | 269 | 5.0 | 15.0 | 0.00 | 0.00 | 0.00 | 70 | 1020.7 |
| 20260507000623 | 62 | 263 | 5.0 | 15.0 | 0.00 | 0.00 | 0.00 | 70 | 1020.7 |
| 20260507000617 | 62 | 254 | 5.0 | 15.0 | 0.00 | 0.00 | 0.00 | 70 | 1020.6 |
| 20260506235616 | 61 | 280 | 5.0 | 14.0 | 0.00 | 0.00 | 0.00 | 71 | 1020.6 |
| 20260506235120 | 62 | 235 | 5.0 | 14.0 | 0.00 | 0.00 | 0.00 | 69 | 1020.5 |
| 20260506235116 | 62 | 294 | 5.0 | 14.0 | 0.00 | 0.00 | 0.00 | 70 | 1020.5 |
| 20260506234117 | 62 | 319 | 5.0 | 12.0 | 0.00 | 0.00 | 0.00 | 72 | 1020.6 |
| 20260506233617 | 62 | 259 | 5.0 | 11.0 | 0.00 | 0.00 | 0.00 | 70 | 1020.6 |
| 20260506233113 | 62 | 262 | 5.0 | 13.0 | 0.00 | 0.00 | 0.00 | 69 | 1020.6 |
| 20260506232619 | 63 | 307 | 3.0 | 16.0 | 0.00 | 0.00 | 0.00 | 70 | 1020.6 |
| 20260506232614 | 63 | 268 | 4.0 | 13.0 | 0.00 | 0.00 | 0.00 | 69 | 1020.6 |
| 20260506232227 | 63 | 272 | 5.0 | 16.0 | 0.00 | 0.00 | 0.00 | 71 | 1020.6 |
| 20260506231115 | 62 | 229 | 7.0 | 14.0 | 0.00 | 0.00 | 0.00 | 70 | 1020.6 |
| 20260506230614 | 63 | 222 | 6.0 | 14.0 | 0.00 | 0.00 | 0.00 | 68 | 1020.6 |
| 20260506230117 | 63 | 253 | 4.0 | 11.0 | 0.00 | 0.00 | 0.00 | 68 | 1020.7 |
| 20260506230112 | 63 | 167 | 5.0 | 14.0 | 0.00 | 0.00 | 0.00 | 69 | 1020.7 |
| 20260506225112 | 64 | 194 | 4.0 | 10.0 | 0.00 | 0.00 | 0.00 | 68 | 1020.7 |
| 20260506224612 | 64 | 238 | 4.0 | 10.0 | 0.00 | 0.00 | 0.00 | 67 | 1020.7 |
| 20260506224110 | 64 | 224 | 4.0 | 13.0 | 0.00 | 0.00 | 0.00 | 68 | 1020.6 |
| 20260506223611 | 64 | 275 | 5.0 | 14.0 | 0.00 | 0.00 | 0.00 | 72 | 1020.6 |
| 20260506223111 | 63 | 232 | 5.0 | 14.0 | 0.00 | 0.00 | 0.00 | 69 | 1020.7 |
| 20260506222611 | 64 | 221 | 5.0 | 13.0 | 0.00 | 0.00 | 0.00 | 68 | 1020.6 |
| 20260506222110 | 64 | 252 | 5.0 | 13.0 | 0.00 | 0.00 | 0.00 | 68 | 1020.8 |
| 20260506221615 | 64 | 275 | 5.0 | 12.0 | 0.00 | 0.00 | 0.00 | 69 | 1020.7 |
| 20260506221610 | 64 | 295 | 5.0 | 13.0 | 0.00 | 0.00 | 0.00 | 70 | 1020.7 |
| 20260506221225 | 64 | 255 | 5.0 | 13.0 | 0.00 | 0.00 | 0.00 | 68 | 1020.6 |
| 20260506220110 | 64 | 258 | 6.0 | 13.0 | 0.00 | 0.00 | 0.00 | 69 | 1020.6 |
| 20260506215610 | 64 | 211 | 5.0 | 13.0 | 0.00 | 0.00 | 0.00 | 70 | 1020.5 |
| 20260506215108 | 64 | 292 | 5.0 | 13.0 | 0.00 | 0.00 | 0.00 | 70 | 1020.6 |
| 20260506214609 | 64 | 280 | 5.0 | 14.0 | 0.00 | 0.00 | 0.00 | 66 | 1020.5 |
| 20260506214109 | 65 | 219 | 5.0 | 14.0 | 0.00 | 0.00 | 0.00 | 68 | 1020.5 |
| 20260506213612 | 65 | 257 | 5.0 | 13.0 | 0.00 | 0.00 | 0.00 | 65 | 1020.6 |
| 20260506213608 | 65 | 339 | 5.0 | 11.0 | 0.00 | 0.00 | 0.00 | 68 | 1020.6 |
| 20260506213222 | 65 | 236 | 4.0 | 13.0 | 0.00 | 0.00 | 0.00 | 70 | 1020.7 |
| 20260506212113 | 65 | 299 | 5.0 | 11.0 | 0.00 | 0.00 | 0.00 | 70 | 1020.6 |
| 20260506212109 | 65 | 254 | 4.0 | 11.0 | 0.00 | 0.00 | 0.00 | 70 | 1020.7 |
| 20260506211223 | 64 | 254 | 4.0 | 10.0 | 0.00 | 0.00 | 0.00 | 71 | 1020.6 |
| 20260506211113 | 65 | 243 | 4.0 | 10.0 | 0.00 | 0.00 | 0.00 | 66 | 1020.6 |
| 20260506211109 | 65 | 284 | 5.0 | 11.0 | 0.00 | 0.00 | 0.00 | 67 | 1020.7 |
| 20260506210220 | 64 | 262 | 5.0 | 14.0 | 0.00 | 0.00 | 0.00 | 69 | 1020.7 |
| 20260506205107 | 64 | 309 | 7.0 | 16.0 | 0.00 | 0.00 | 0.00 | 67 | 1020.7 |
| 20260506204606 | 64 | 190 | 5.0 | 16.0 | 0.00 | 0.00 | 0.00 | 70 | 1020.7 |
| 20260506204106 | 64 | 227 | 4.0 | 12.0 | 0.00 | 0.00 | 0.00 | 69 | 1020.7 |
| 20260506203606 | 64 | 282 | 6.0 | 12.0 | 0.00 | 0.00 | 0.00 | 73 | 1020.7 |
| 20260506203106 | 63 | 215 | 5.0 | 13.0 | 0.00 | 0.00 | 0.00 | 71 | 1020.7 |
| 20260506202606 | 63 | 236 | 6.0 | 13.0 | 0.00 | 0.00 | 0.00 | 68 | 1020.7 |
| 20260506202105 | 63 | 227 | 5.0 | 12.0 | 0.00 | 0.00 | 0.00 | 70 | 1020.7 |
| 20260506201605 | 64 | 224 | 4.0 | 12.0 | 0.00 | 0.00 | 0.00 | 70 | 1020.7 |
| 20260506201110 | 64 | 244 | 4.0 | 12.0 | 0.00 | 0.00 | 0.00 | 71 | 1020.9 |
| 20260506201106 | 64 | 229 | 4.0 | 12.0 | 0.00 | 0.00 | 0.00 | 70 | 1020.8 |
| 20260506195602 | 63 | 263 | 4.0 | 9.0 | 0.00 | 0.00 | 0.00 | 71 | 1021.0 |
| 20260506195102 | 63 | 144 | 4.0 | 9.0 | 0.00 | 0.00 | 0.00 | 74 | 1020.9 |
| 20260506194602 | 63 | 259 | 4.0 | 9.0 | 0.00 | 0.00 | 0.00 | 72 | 1021.0 |
| 20260506194101 | 63 | 232 | 4.0 | 11.0 | 0.00 | 0.00 | 0.00 | 73 | 1021.0 |
| 20260506193607 | 63 | 302 | 4.0 | 12.0 | 0.00 | 0.00 | 0.00 | 71 | 1020.9 |
| 20260506193602 | 63 | 205 | 4.0 | 12.0 | 0.00 | 0.00 | 0.00 | 70 | 1020.9 |
| 20260506192603 | 63 | 299 | 5.0 | 13.0 | 0.00 | 0.00 | 0.00 | 71 | 1021.0 |
| 20260506192107 | 63 | 219 | 4.0 | 10.0 | 0.00 | 0.00 | 0.00 | 73 | 1021.0 |
| 20260506192103 | 63 | 292 | 5.0 | 13.0 | 0.00 | 0.00 | 0.00 | 73 | 1021.0 |
| 20260506191102 | 63 | 195 | 6.0 | 15.0 | 0.00 | 0.00 | 0.00 | 73 | 1020.9 |
| 20260506190607 | 63 | 213 | 3.0 | 9.0 | 0.00 | 0.00 | 0.00 | 75 | 1020.9 |
| 20260506190601 | 63 | 222 | 5.0 | 15.0 | 0.00 | 0.00 | 0.00 | 71 | 1020.9 |
| 20260506190215 | 63 | 236 | 3.0 | 10.0 | 0.00 | 0.00 | 0.00 | 72 | 1020.9 |
| 20260506185603 | 63 | 238 | 3.0 | 10.0 | 0.00 | 0.00 | 0.00 | 72 | 1020.8 |
| 20260506184601 | 62 | 304 | 3.0 | 7.0 | 0.00 | 0.00 | 0.00 | 71 | 1020.8 |
| 20260506184059 | 62 | 288 | 3.0 | 7.0 | 0.00 | 0.00 | 0.00 | 74 | 1020.8 |
| 20260506183559 | 62 | 201 | 2.0 | 7.0 | 0.00 | 0.00 | 0.00 | 73 | 1020.8 |
| 20260506183058 | 62 | 233 | 2.0 | 7.0 | 0.00 | 0.00 | 0.00 | 73 | 1020.8 |
| 20260506182556 | 62 | 267 | 2.0 | 7.0 | 0.00 | 0.00 | 0.00 | 75 | 1020.8 |
| 20260506182056 | 61 | 233 | 2.0 | 5.0 | 0.00 | 0.00 | 0.00 | 75 | 1020.9 |
| 20260506181557 | 61 | 259 | 3.0 | 6.0 | 0.00 | 0.00 | 0.00 | 77 | 1020.9 |
| 20260506181056 | 61 | 259 | 2.0 | 6.0 | 0.00 | 0.00 | 0.00 | 78 | 1020.9 |
| 20260506180557 | 60 | 230 | 2.0 | 6.0 | 0.00 | 0.00 | 0.00 | 77 | 1020.9 |
| 20260506180055 | 60 | 236 | 2.0 | 7.0 | 0.00 | 0.00 | 0.00 | 77 | 1021.0 |
| 20260506175554 | 60 | 278 | 2.0 | 7.0 | 0.00 | 0.00 | 0.00 | 78 | 1021.1 |
| 20260506175052 | 59 | 276 | 2.0 | 6.0 | 0.00 | 0.00 | 0.00 | 77 | 1021.0 |
| 20260506174551 | 59 | 287 | 2.0 | 6.0 | 0.00 | 0.00 | 0.00 | 77 | 1020.9 |
| 20260506174052 | 59 | 264 | 1.0 | 4.0 | 0.00 | 0.00 | 0.00 | 79 | 1020.9 |
| 20260506173555 | 59 | 252 | 1.0 | 2.0 | 0.00 | 0.00 | 0.00 | 78 | 1020.8 |
| 20260506173550 | 59 | 269 | 1.0 | 4.0 | 0.00 | 0.00 | 0.00 | 78 | 1020.9 |
| 20260506172553 | 58 | 255 | 1.0 | 4.0 | 0.00 | 0.00 | 0.00 | 80 | 1020.8 |
| 20260506172548 | 58 | 250 | 1.0 | 4.0 | 0.00 | 0.00 | 0.00 | 78 | 1020.8 |
| 20260506171549 | 58 | 181 | 1.0 | 4.0 | 0.00 | 0.00 | 0.00 | 79 | 1020.6 |
| 20260506171049 | 58 | 180 | 2.0 | 5.0 | 0.00 | 0.00 | 0.00 | 78 | 1020.7 |
| 20260506170546 | 58 | 225 | 1.0 | 5.0 | 0.00 | 0.00 | 0.00 | 79 | 1020.8 |
| 20260506170045 | 57 | 226 | 1.0 | 4.0 | 0.00 | 0.00 | 0.00 | 80 | 1020.8 |
| 20260506165547 | 57 | 230 | 1.0 | 5.0 | 0.00 | 0.00 | 0.00 | 81 | 1021.0 |
| 20260506165045 | 57 | 292 | 1.0 | 5.0 | 0.00 | 0.00 | 0.00 | 81 | 1021.0 |
| 20260506164546 | 57 | 213 | 1.0 | 3.0 | 0.00 | 0.00 | 0.00 | 80 | 1021.0 |
| 20260506164047 | 57 | 275 | 1.0 | 3.0 | 0.00 | 0.00 | 0.00 | 81 | 1021.0 |
| 20260506163547 | 56 | 270 | 1.0 | 2.0 | 0.00 | 0.00 | 0.00 | 81 | 1020.9 |
| 20260506163046 | 56 | 234 | 1.0 | 2.0 | 0.00 | 0.00 | 0.00 | 81 | 1020.9 |
| 20260506162547 | 56 | 250 | 1.0 | 2.0 | 0.00 | 0.00 | 0.00 | 81 | 1020.9 |
| 20260506162046 | 56 | 217 | 1.0 | 4.0 | 0.00 | 0.00 | 0.00 | 82 | 1021.0 |
| 20260506161546 | 56 | 215 | 1.0 | 4.0 | 0.00 | 0.00 | 0.00 | 83 | 1020.9 |
| 20260506161046 | 56 | 277 | 1.0 | 3.0 | 0.00 | 0.00 | 0.00 | 83 | 1021.0 |
| 20260506160546 | 55 | 301 | 1.0 | 3.0 | 0.00 | 0.00 | 0.00 | 82 | 1020.9 |
| 20260506160045 | 55 | 250 | 1.0 | 3.0 | 0.00 | 0.00 | 0.00 | 83 | 1020.9 |
| 20260506155546 | 55 | 260 | 1.0 | 3.0 | 0.00 | 0.00 | 0.00 | 83 | 1020.8 |
| 20260506155047 | 55 | 248 | 1.0 | 3.0 | 0.00 | 0.00 | 0.00 | 83 | 1020.8 |
| 20260506154543 | 55 | 244 | 1.0 | 5.0 | 0.00 | 0.00 | 0.00 | 84 | 1020.7 |
| 20260506154044 | 55 | 215 | 2.0 | 5.0 | 0.00 | 0.00 | 0.00 | 82 | 1020.6 |
| 20260506153543 | 55 | 186 | 2.0 | 5.0 | 0.00 | 0.00 | 0.00 | 83 | 1020.6 |
| 20260506153044 | 54 | 213 | 2.0 | 5.0 | 0.00 | 0.00 | 0.00 | 83 | 1020.5 |
| 20260506152541 | 54 | 236 | 3.0 | 8.0 | 0.00 | 0.00 | 0.00 | 83 | 1020.3 |
| 20260506152039 | 54 | 222 | 3.0 | 8.0 | 0.00 | 0.00 | 0.00 | 83 | 1020.6 |
| 20260506151539 | 54 | 229 | 3.0 | 8.0 | 0.00 | 0.00 | 0.00 | 84 | 1020.7 |
| 20260506151035 | 54 | 199 | 3.0 | 8.0 | 0.00 | 0.00 | 0.00 | 83 | 1020.8 |
| 20260506150537 | 54 | 217 | 2.0 | 6.0 | 0.00 | 0.00 | 0.00 | 84 | 1020.7 |
| 20260506150036 | 53 | 248 | 2.0 | 7.0 | 0.00 | 0.00 | 0.00 | 85 | 1020.9 |
| 20260506145535 | 53 | 220 | 3.0 | 7.0 | 0.00 | 0.00 | 0.00 | 85 | 1020.9 |
| 20260506145042 | 53 | 298 | 3.0 | 10.0 | 0.00 | 0.00 | 0.00 | 86 | 1020.8 |
| 20260506145036 | 53 | 240 | 2.0 | 7.0 | 0.00 | 0.00 | 0.00 | 85 | 1020.9 |
| 20260506144537 | 53 | 252 | 2.0 | 7.0 | 0.00 | 0.00 | 0.00 | 86 | 1020.8 |
| 20260506144148 | 53 | 259 | 3.0 | 10.0 | 0.00 | 0.00 | 0.00 | 86 | 1020.9 |
| 20260506143036 | 53 | 261 | 3.0 | 9.0 | 0.00 | 0.00 | 0.00 | 87 | 1020.8 |
| 20260506143032 | 52 | 271 | 3.0 | 8.0 | 0.00 | 0.00 | 0.00 | 87 | 1020.8 |
| 20260506142031 | 52 | 265 | 3.0 | 11.0 | 0.00 | 0.00 | 0.00 | 87 | 1020.6 |
| 20260506141529 | 52 | 290 | 2.0 | 11.0 | 0.00 | 0.00 | 0.00 | 87 | 1020.5 |
| 20260506141029 | 52 | 290 | 2.0 | 4.0 | 0.00 | 0.00 | 0.00 | 88 | 1020.3 |
| 20260506140529 | 52 | 265 | 2.0 | 4.0 | 0.00 | 0.00 | 0.00 | 89 | 1020.2 |
| 20260506140025 | 51 | 254 | 2.0 | 6.0 | 0.00 | 0.00 | 0.00 | 89 | 1020.1 |
| 20260506135526 | 51 | 248 | 1.0 | 6.0 | 0.00 | 0.00 | 0.00 | 90 | 1020.1 |
| 20260506135023 | 51 | 180 | 1.0 | 4.0 | 0.00 | 0.00 | 0.00 | 91 | 1019.9 |
| 20260506134523 | 50 | 236 | 0.0 | 2.0 | 0.00 | 0.00 | 0.00 | 91 | 1020.0 |
| 20260506134023 | 50 | 233 | 0.0 | 2.0 | 0.00 | 0.00 | 0.00 | 91 | 1019.9 |
| 20260506133523 | 50 | 233 | 0.0 | 2.0 | 0.00 | 0.00 | 0.00 | 90 | 1019.9 |
| 20260506133021 | 50 | 238 | 0.0 | 2.0 | 0.00 | 0.00 | 0.00 | 90 | 1019.9 |
| 20260506132522 | 50 | 238 | 0.0 | 2.0 | 0.00 | 0.00 | 0.00 | 90 | 1019.9 |
| 20260506132021 | 50 | 236 | 0.0 | 2.0 | 0.00 | 0.00 | 0.00 | 90 | 1019.9 |
| 20260506131526 | 50 | 235 | 0.0 | 3.0 | 0.00 | 0.00 | 0.00 | 90 | 1019.8 |
| 20260506131521 | 50 | 236 | 0.0 | 3.0 | 0.00 | 0.00 | 0.00 | 90 | 1019.9 |
| 20260506130521 | 50 | 234 | 0.0 | 2.0 | 0.00 | 0.00 | 0.00 | 89 | 1019.8 |
| 20260506130021 | 50 | 234 | 0.0 | 2.0 | 0.00 | 0.00 | 0.00 | 89 | 1019.7 |
| 20260506125523 | 50 | 223 | 0.0 | 2.0 | 0.00 | 0.00 | 0.00 | 89 | 1019.7 |
| 20260506125023 | 50 | 223 | 0.0 | 3.0 | 0.00 | 0.00 | 0.00 | 89 | 1019.6 |
| 20260506124526 | 51 | 214 | 0.0 | 2.0 | 0.00 | 0.00 | 0.00 | 88 | 1019.6 |
| 20260506124522 | 51 | 223 | 0.0 | 3.0 | 0.00 | 0.00 | 0.00 | 88 | 1019.7 |
| 20260506123520 | 51 | 213 | 1.0 | 4.0 | 0.00 | 0.00 | 0.00 | 88 | 1019.5 |
| 20260506123019 | 51 | 217 | 2.0 | 5.0 | 0.00 | 0.00 | 0.00 | 87 | 1019.4 |
| 20260506122519 | 51 | 219 | 2.0 | 5.0 | 0.00 | 0.00 | 0.00 | 88 | 1019.3 |
| 20260506122019 | 51 | 205 | 2.0 | 4.0 | 0.00 | 0.00 | 0.00 | 88 | 1019.4 |
| 20260506121524 | 52 | 228 | 2.0 | 9.0 | 0.00 | 0.00 | 0.00 | 88 | 1019.5 |
| 20260506121519 | 52 | 246 | 2.0 | 6.0 | 0.00 | 0.00 | 0.00 | 87 | 1019.5 |
| 20260506120521 | 52 | 264 | 2.0 | 9.0 | 0.00 | 0.00 | 0.00 | 88 | 1019.5 |
| 20260506120020 | 52 | 241 | 2.0 | 6.0 | 0.00 | 0.00 | 0.00 | 88 | 1019.6 |
| 20260506115519 | 52 | 253 | 1.0 | 7.0 | 0.00 | 0.00 | 0.00 | 88 | 1019.6 |
| 20260506115016 | 52 | 232 | 2.0 | 7.0 | 0.00 | 0.00 | 0.00 | 88 | 1019.4 |
| 20260506114519 | 52 | 257 | 2.0 | 7.0 | 0.00 | 0.00 | 0.00 | 88 | 1019.4 |
| 20260506114017 | 52 | 242 | 2.0 | 9.0 | 0.00 | 0.00 | 0.00 | 88 | 1019.4 |
| 20260506113518 | 52 | 252 | 2.0 | 9.0 | 0.00 | 0.00 | 0.00 | 87 | 1019.3 |
| 20260506113017 | 52 | 244 | 3.0 | 7.0 | 0.00 | 0.00 | 0.00 | 88 | 1019.3 |
| 20260506112523 | 53 | 211 | 2.0 | 7.0 | 0.00 | 0.00 | 0.00 | 88 | 1019.2 |
| 20260506112517 | 52 | 251 | 3.0 | 8.0 | 0.00 | 0.00 | 0.00 | 87 | 1019.3 |
| 20260506112018 | 52 | 253 | 2.0 | 8.0 | 0.00 | 0.00 | 0.00 | 88 | 1019.3 |
| 20260506111517 | 52 | 255 | 2.0 | 7.0 | 0.00 | 0.00 | 0.00 | 87 | 1019.3 |
| 20260506110520 | 53 | 268 | 2.0 | 7.0 | 0.00 | 0.00 | 0.00 | 87 | 1019.1 |
| 20260506110516 | 53 | 247 | 3.0 | 10.0 | 0.00 | 0.00 | 0.00 | 88 | 1019.1 |
| 20260506105519 | 52 | 302 | 2.0 | 8.0 | 0.00 | 0.00 | 0.00 | 88 | 1018.9 |
| 20260506105514 | 53 | 259 | 3.0 | 10.0 | 0.00 | 0.00 | 0.00 | 88 | 1019.0 |
| 20260506105014 | 52 | 233 | 3.0 | 9.0 | 0.00 | 0.00 | 0.00 | 88 | 1019.0 |
| 20260506104020 | 52 | 310 | 2.0 | 8.0 | 0.00 | 0.00 | 0.00 | 89 | 1018.7 |
| 20260506104014 | 52 | 264 | 2.0 | 8.0 | 0.00 | 0.00 | 0.00 | 89 | 1018.7 |
| 20260506103515 | 52 | 227 | 2.0 | 8.0 | 0.00 | 0.00 | 0.00 | 89 | 1018.7 |
| 20260506102515 | 52 | 219 | 2.0 | 6.0 | 0.00 | 0.00 | 0.00 | 90 | 1018.7 |
| 20260506102015 | 51 | 238 | 2.0 | 6.0 | 0.00 | 0.00 | 0.00 | 90 | 1018.6 |
| 20260506101516 | 51 | 245 | 1.0 | 6.0 | 0.00 | 0.00 | 0.00 | 90 | 1018.6 |
| 20260506101012 | 51 | 269 | 1.0 | 6.0 | 0.00 | 0.00 | 0.00 | 90 | 1018.6 |
| 20260506100514 | 51 | 206 | 2.0 | 7.0 | 0.00 | 0.00 | 0.00 | 90 | 1018.5 |
| 20260506100011 | 51 | 248 | 2.0 | 7.0 | 0.00 | 0.00 | 0.00 | 90 | 1018.5 |
| 20260506095511 | 51 | 252 | 2.0 | 7.0 | 0.00 | 0.00 | 0.00 | 90 | 1018.5 |
| 20260506095011 | 51 | 257 | 2.0 | 6.0 | 0.00 | 0.00 | 0.00 | 90 | 1018.4 |
| 20260506094516 | 51 | 248 | 1.0 | 4.0 | 0.00 | 0.00 | 0.00 | 91 | 1018.3 |
| 20260506094511 | 51 | 251 | 2.0 | 5.0 | 0.00 | 0.00 | 0.00 | 90 | 1018.4 |
| 20260506094010 | 51 | 251 | 2.0 | 5.0 | 0.00 | 0.00 | 0.00 | 90 | 1018.3 |
| 20260506093013 | 51 | 244 | 2.0 | 5.0 | 0.00 | 0.00 | 0.00 | 91 | 1018.2 |
| 20260506093009 | 51 | 288 | 2.0 | 5.0 | 0.00 | 0.00 | 0.00 | 91 | 1018.2 |
| 20260506092622 | 51 | 290 | 1.0 | 4.0 | 0.00 | 0.00 | 0.00 | 91 | 1018.2 |
| 20260506091508 | 51 | 247 | 1.0 | 3.0 | 0.00 | 0.00 | 0.00 | 91 | 1018.2 |
| 20260506091006 | 51 | 252 | 1.0 | 4.0 | 0.00 | 0.00 | 0.00 | 91 | 1018.2 |
| 20260506090507 | 51 | 254 | 1.0 | 5.0 | 0.00 | 0.00 | 0.00 | 91 | 1018.2 |
| 20260506090006 | 51 | 257 | 1.0 | 5.0 | 0.00 | 0.00 | 0.00 | 92 | 1018.2 |
| 20260506085507 | 51 | 244 | 1.0 | 4.0 | 0.00 | 0.00 | 0.00 | 91 | 1018.2 |
| 20260506085007 | 51 | 257 | 1.0 | 4.0 | 0.00 | 0.00 | 0.00 | 91 | 1018.1 |
| 20260506084508 | 51 | 239 | 0.0 | 3.0 | 0.00 | 0.00 | 0.00 | 91 | 1018.1 |
| 20260506084007 | 51 | 290 | 0.0 | 2.0 | 0.00 | 0.00 | 0.00 | 91 | 1018.0 |
| 20260506083507 | 51 | 234 | 1.0 | 2.0 | 0.00 | 0.00 | 0.00 | 91 | 1018.0 |
| 20260506083004 | 51 | 248 | 1.0 | 4.0 | 0.00 | 0.00 | 0.00 | 91 | 1017.9 |
| 20260506082504 | 51 | 251 | 1.0 | 4.0 | 0.00 | 0.00 | 0.00 | 91 | 1017.9 |
| 20260506082005 | 51 | 244 | 1.0 | 4.0 | 0.00 | 0.00 | 0.00 | 91 | 1017.9 |
| 20260506081506 | 51 | 242 | 1.0 | 3.0 | 0.00 | 0.00 | 0.00 | 90 | 1017.9 |
| 20260506081006 | 51 | 254 | 1.0 | 3.0 | 0.00 | 0.00 | 0.00 | 90 | 1017.9 |
| 20260506080502 | 51 | 234 | 0.0 | 2.0 | 0.00 | 0.00 | 0.00 | 90 | 1017.8 |
| 20260506073501 | 51 | 236 | 0.0 | 2.0 | 0.00 | 0.00 | 0.00 | 89 | 1017.6 |
| 20260506073000 | 51 | 248 | 0.0 | 2.0 | 0.00 | 0.00 | 0.00 | 89 | 1017.6 |
| 20260506072501 | 51 | 225 | 1.0 | 4.0 | 0.00 | 0.00 | 0.00 | 89 | 1017.6 |
| 20260506072005 | 52 | 219 | 2.0 | 5.0 | 0.00 | 0.00 | 0.00 | 89 | 1017.6 |
| 20260506072001 | 52 | 232 | 2.0 | 4.0 | 0.00 | 0.00 | 0.00 | 89 | 1017.6 |
| 20260506071005 | 52 | 215 | 2.0 | 4.0 | 0.00 | 0.00 | 0.00 | 89 | 1017.5 |
| 20260506071001 | 52 | 215 | 2.0 | 5.0 | 0.00 | 0.00 | 0.00 | 89 | 1017.6 |
| 20260506062459 | 52 | 248 | 1.0 | 3.0 | 0.00 | 0.00 | 0.00 | 88 | 1017.4 |
| 20260506062000 | 52 | 228 | 1.0 | 3.0 | 0.00 | 0.00 | 0.00 | 88 | 1017.4 |
| 20260506061459 | 52 | 243 | 1.0 | 3.0 | 0.00 | 0.00 | 0.00 | 88 | 1017.3 |
| 20260506060959 | 52 | 235 | 1.0 | 3.0 | 0.00 | 0.00 | 0.00 | 87 | 1017.3 |
| 20260506060501 | 53 | 232 | 1.0 | 8.0 | 0.00 | 0.00 | 0.00 | 87 | 1017.3 |
| 20260506050954 | 54 | 259 | 2.0 | 6.0 | 0.00 | 0.00 | 0.00 | 85 | 1017.1 |
| 20260506050455 | 54 | 223 | 2.0 | 6.0 | 0.00 | 0.00 | 0.00 | 85 | 1017.1 |
| 20260506044955 | 54 | 234 | 1.0 | 5.0 | 0.00 | 0.00 | 0.00 | 85 | 1017.0 |
| 20260506044454 | 54 | 236 | 2.0 | 7.0 | 0.00 | 0.00 | 0.00 | 85 | 1017.0 |
| 20260506043953 | 54 | 249 | 2.0 | 8.0 | 0.00 | 0.00 | 0.00 | 85 | 1016.9 |
| 20260506043453 | 54 | 234 | 2.0 | 8.0 | 0.00 | 0.00 | 0.00 | 85 | 1016.9 |
| 20260506042954 | 54 | 270 | 2.0 | 8.0 | 0.00 | 0.00 | 0.00 | 85 | 1016.8 |
| 20260506042451 | 54 | 266 | 2.0 | 7.0 | 0.00 | 0.00 | 0.00 | 85 | 1016.7 |
| 20260506041951 | 54 | 242 | 2.0 | 7.0 | 0.00 | 0.00 | 0.00 | 85 | 1016.6 |
| 20260506041451 | 54 | 284 | 1.0 | 7.0 | 0.00 | 0.00 | 0.00 | 85 | 1016.6 |
| 20260506040952 | 54 | 242 | 2.0 | 7.0 | 0.00 | 0.00 | 0.00 | 84 | 1016.4 |
| 20260506040450 | 54 | 255 | 1.0 | 7.0 | 0.00 | 0.00 | 0.00 | 84 | 1016.3 |
| 20260506035950 | 54 | 247 | 1.0 | 4.0 | 0.00 | 0.00 | 0.00 | 84 | 1016.3 |
| 20260506035451 | 55 | 223 | 2.0 | 9.0 | 0.00 | 0.00 | 0.00 | 83 | 1016.1 |
| 20260506035447 | 54 | 254 | 2.0 | 7.0 | 0.00 | 0.00 | 0.00 | 83 | 1016.2 |
| 20260506034447 | 55 | 273 | 2.0 | 9.0 | 0.00 | 0.00 | 0.00 | 83 | 1016.0 |
| 20260506033948 | 55 | 254 | 2.0 | 5.0 | 0.00 | 0.00 | 0.00 | 82 | 1015.9 |
| 20260506033446 | 55 | 272 | 2.0 | 9.0 | 0.00 | 0.00 | 0.00 | 82 | 1015.8 |
| 20260506033102 | 56 | 234 | 2.0 | 7.0 | 0.00 | 0.00 | 0.00 | 80 | 1015.6 |
| 20260506032952 | 56 | 257 | 2.0 | 6.0 | 0.00 | 0.00 | 0.00 | 80 | 1015.7 |
| 20260506032946 | 56 | 260 | 2.0 | 9.0 | 0.00 | 0.00 | 0.00 | 81 | 1015.7 |
| 20260506031447 | 57 | 261 | 3.0 | 7.0 | 0.00 | 0.00 | 0.00 | 79 | 1015.6 |
| 20260506030947 | 57 | 209 | 3.0 | 7.0 | 0.00 | 0.00 | 0.00 | 78 | 1015.6 |
| 20260506030447 | 58 | 266 | 2.0 | 6.0 | 0.00 | 0.00 | 0.00 | 78 | 1015.5 |
| 20260506025946 | 58 | 252 | 1.0 | 6.0 | 0.00 | 0.00 | 0.00 | 77 | 1015.4 |
| 20260506025447 | 58 | 259 | 1.0 | 5.0 | 0.00 | 0.00 | 0.00 | 77 | 1015.3 |
| 20260506024947 | 59 | 258 | 2.0 | 6.0 | 0.00 | 0.00 | 0.00 | 76 | 1015.3 |
| 20260506024447 | 60 | 263 | 2.0 | 7.0 | 0.00 | 0.00 | 0.00 | 75 | 1015.3 |
| 20260506023947 | 60 | 238 | 2.0 | 7.0 | 0.00 | 0.00 | 0.00 | 74 | 1015.2 |
| 20260506023447 | 61 | 234 | 2.0 | 9.0 | 0.00 | 0.00 | 0.00 | 73 | 1015.2 |
| 20260506022946 | 61 | 242 | 2.0 | 9.0 | 0.00 | 0.00 | 0.00 | 73 | 1015.1 |
| 20260506022451 | 62 | 249 | 2.0 | 8.0 | 0.00 | 0.00 | 0.00 | 71 | 1015.0 |
| 20260506022447 | 62 | 281 | 2.0 | 6.0 | 0.00 | 0.00 | 0.00 | 72 | 1015.0 |
| 20260506021452 | 63 | 237 | 2.0 | 7.0 | 0.00 | 0.00 | 0.00 | 70 | 1015.0 |
| 20260506021447 | 62 | 229 | 2.0 | 8.0 | 0.00 | 0.00 | 0.00 | 71 | 1015.0 |
| 20260506020452 | 64 | 264 | 2.0 | 7.0 | 0.00 | 0.00 | 0.00 | 69 | 1015.0 |
| 20260506020446 | 63 | 261 | 2.0 | 7.0 | 0.00 | 0.00 | 0.00 | 69 | 1015.0 |
| 20260506020100 | 65 | 271 | 2.0 | 7.0 | 0.00 | 0.00 | 0.00 | 67 | 1015.0 |